TimeMST,TemperatureF,Dew PointF,Humidity,Sea Level PressureIn,VisibilityMPH,Wind Direction,Wind SpeedMPH,Gust SpeedMPH,PrecipitationIn,Events,Conditions,WindDirDegrees,DateUTC
12:53 AM,28.9,21.0,72,30.31,10.0,NNW,10.4,17.3,N/A,,Overcast,340,2013-02-14 07:53:00
1:44 AM,24.8,21.2,86,30.23,1.8,NW,12.7,-,0.00,Snow,Light Snow,320,2013-02-14 08:44:00
1:53 AM,25.0,21.0,85,30.37,1.8,NW,9.2,-,0.01,Snow,Light Snow,310,2013-02-14 08:53:00
2:04 AM,24.8,21.2,86,30.25,1.0,NW,10.4,-,0.00,Snow,Light Snow,310,2013-02-14 09:04:00
2:12 AM,24.8,21.2,86,30.25,0.8,WNW,9.2,-,0.01,Snow,Light Snow,300,2013-02-14 09:12:00
2:23 AM,24.8,21.2,86,30.26,1.0,WNW,10.4,-,0.01,Snow,Light Snow,290,2013-02-14 09:23:00
2:46 AM,24.8,21.2,86,30.27,1.5,West,11.5,-,0.02,Snow,Light Snow,280,2013-02-14 09:46:00
2:49 AM,24.8,21.2,86,30.27,3.0,West,11.5,-,0.02,Snow,Light Snow,270,2013-02-14 09:49:00
2:53 AM,24.1,21.0,88,30.42,8.0,West,11.5,-,0.02,Snow,Light Snow,280,2013-02-14 09:53:00
3:03 AM,24.8,19.4,80,30.27,5.0,West,9.2,-,0.00,Snow,Light Snow,280,2013-02-14 10:03:00
3:53 AM,23.0,19.0,85,30.41,10.0,West,6.9,-,0.00,,Overcast,270,2013-02-14 10:53:00
4:36 AM,23.0,17.6,80,30.29,2.0,West,8.1,-,0.00,Snow,Light Snow,260,2013-02-14 11:36:00
4:38 AM,23.0,17.6,80,30.29,1.0,West,8.1,-,0.00,Snow,Light Snow,270,2013-02-14 11:38:00
4:44 AM,21.2,19.4,93,30.30,0.2,West,9.2,-,0.01,Fog-Snow,Heavy Snow,270,2013-02-14 11:44:00
4:48 AM,21.2,19.4,93,30.29,0.5,West,6.9,-,0.02,Fog-Snow,Snow,270,2013-02-14 11:48:00
4:53 AM,21.9,19.0,89,30.45,1.0,West,6.9,-,0.02,Snow,Light Snow,260,2013-02-14 11:53:00
5:08 AM,21.2,19.4,93,30.29,0.2,West,6.9,-,0.01,Fog-Snow,Heavy Snow,260,2013-02-14 12:08:00
5:18 AM,21.2,19.4,93,30.29,0.5,West,6.9,-,0.03,Fog-Snow,Snow,260,2013-02-14 12:18:00
5:21 AM,21.2,19.4,93,30.29,1.0,West,8.1,-,0.03,Snow,Light Snow,260,2013-02-14 12:21:00
5:24 AM,21.2,19.4,93,30.29,1.5,West,9.2,-,0.03,Snow,Light Snow,260,2013-02-14 12:24:00
5:28 AM,21.2,19.4,93,30.29,3.0,West,8.1,-,0.03,Snow,Light Snow,260,2013-02-14 12:28:00
5:42 AM,21.2,17.6,86,30.30,9.0,West,9.2,-,0.03,,Overcast,260,2013-02-14 12:42:00
5:48 AM,21.2,17.6,86,30.31,2.5,WSW,8.1,-,0.03,Snow,Light Snow,250,2013-02-14 12:48:00
5:50 AM,21.2,17.6,86,30.31,1.2,WSW,8.1,-,0.03,Snow,Light Snow,250,2013-02-14 12:50:00
5:53 AM,21.9,19.0,89,30.46,0.5,West,6.9,-,0.04,Fog-Snow,Snow,260,2013-02-14 12:53:00
5:58 AM,21.2,19.4,93,30.31,0.2,West,6.9,-,0.00,Fog-Snow,Heavy Snow,260,2013-02-14 12:58:00
6:05 AM,21.2,19.4,93,30.30,0.5,WSW,5.8,-,0.01,Fog-Snow,Snow,250,2013-02-14 13:05:00
6:15 AM,21.2,19.4,93,30.31,1.0,West,6.9,-,0.03,Snow,Light Snow,270,2013-02-14 13:15:00
6:53 AM,21.9,19.0,89,30.47,1.2,Calm,Calm,-,0.04,Snow,Light Snow,0,2013-02-14 13:53:00
7:01 AM,21.2,19.4,93,30.32,1.5,West,4.6,-,0.00,Snow,Light Snow,270,2013-02-14 14:01:00
7:17 AM,21.2,19.4,93,30.32,3.0,Calm,Calm,-,0.01,Snow,Light Snow,0,2013-02-14 14:17:00
7:28 AM,21.2,17.6,86,30.32,8.0,Calm,Calm,-,0.01,,Overcast,0,2013-02-14 14:28:00
7:53 AM,21.0,18.0,88,30.48,10.0,Calm,Calm,-,0.01,,Overcast,0,2013-02-14 14:53:00
8:53 AM,21.9,19.0,89,30.48,3.0,Calm,Calm,-,0.00,Snow,Light Snow,0,2013-02-14 15:53:00
9:53 AM,23.0,19.0,85,30.48,7.0,East,3.5,-,0.00,Snow,Light Snow,100,2013-02-14 16:53:00
10:53 AM,24.1,19.0,81,30.48,10.0,ESE,3.5,-,0.00,,Overcast,110,2013-02-14 17:53:00
11:53 AM,25.0,19.0,78,30.47,10.0,Calm,Calm,-,N/A,,Overcast,0,2013-02-14 18:53:00
12:53 PM,27.0,19.0,72,30.46,10.0,Calm,Calm,-,N/A,,Mostly Cloudy,0,2013-02-14 19:53:00
1:53 PM,30.9,19.0,61,30.44,10.0,WNW,3.5,-,N/A,,Overcast,300,2013-02-14 20:53:00
2:53 PM,33.1,19.9,59,30.41,10.0,Calm,Calm,-,N/A,,Overcast,0,2013-02-14 21:53:00
3:53 PM,28.0,21.0,75,30.44,10.0,Calm,Calm,-,N/A,,Overcast,0,2013-02-14 22:53:00
4:53 PM,30.0,21.0,69,30.44,10.0,SW,3.5,-,N/A,,Overcast,220,2013-02-14 23:53:00
5:53 PM,33.1,19.0,56,30.43,10.0,West,11.5,-,N/A,,Scattered Clouds,280,2013-02-15 00:53:00
6:53 PM,34.0,19.9,56,30.43,10.0,West,13.8,-,N/A,,Mostly Cloudy,260,2013-02-15 01:53:00
7:53 PM,35.1,21.0,57,30.43,10.0,West,15.0,-,N/A,,Overcast,270,2013-02-15 02:53:00
8:53 PM,35.1,21.0,57,30.43,10.0,West,17.3,-,N/A,,Overcast,270,2013-02-15 03:53:00
9:53 PM,34.0,21.0,59,30.45,10.0,West,15.0,-,N/A,,Overcast,270,2013-02-15 04:53:00
10:53 PM,34.0,21.0,59,30.46,10.0,West,15.0,23.0,N/A,,Mostly Cloudy,270,2013-02-15 05:53:00
11:53 PM,34.0,21.0,59,30.48,10.0,West,15.0,-,N/A,,Overcast,280,2013-02-15 06:53:00